Hourly Data Report for July 18, 2021

NORTH CAPE
PRINCE EDWARD ISLAND
Current Station Operator: ECCC - MSC

47°03'29.000" N
63°59'55.000" W
7.60 m
8300516
71987
WNE

Download Data

Hourly Data (July 2021)
Hourly Data Report for July 18, 2021
TIME
LST
Temp Definition
°C
Dew Point Definition
°C
Rel Hum Definition
%
Precip. Amount Definition
mm

Wind Dir Definition
10's deg

Wind Spd Definition
km/h
Visibility Definition
km
Stn Press Definition
kPa
Hmdx Definition


Wind Chill Definition


Weather Definition


00:00 19.6 18.0 90 0.0 27 13   101.56     LegendNANA
01:00 19.4 17.9 91 0.0 24 14   101.58     LegendNANA
02:00 18.8 17.8 94 0.0 25 9   101.60     LegendNANA
03:00 18.5 17.4 93 0.0 30 6   101.64     LegendNANA
04:00 18.3 17.1 93 0.0 33 3   101.64     LegendNANA
05:00 18.4 16.7 90 0.0 28 2   101.67     LegendNANA
06:00 18.7 17.8 95 0.0 24 6   101.72     LegendNANA
07:00 19.5 18.2 92 0.0 24 5   101.76     LegendNANA
08:00 20.5 18.5 89 0.0 26 2   101.78 27   LegendNANA
09:00 21.3 18.4 83 0.0 0 1   101.80 28   LegendNANA
10:00 22.8 16.3 67 0.0 6 2   101.79 28   LegendNANA
11:00 21.8 18.2 80 0.0 18 7   101.78 28   LegendNANA
12:00 21.2 17.9 82 0.0 32 4   101.76 27   LegendNANA
13:00 23.5 15.2 60 0.0 14 11   101.72 28   LegendNANA
14:00 23.7 14.8 58 0.0 16 10   101.70 28   LegendNANA
15:00 24.0 14.9 57 0.0 15 13   101.69 28   LegendNANA
16:00 24.1 14.6 55 0.0 15 11   101.68 28   LegendNANA
17:00 24.0 14.4 55 0.0 15 11   101.67 28   LegendNANA
18:00 22.3 14.9 63 0.0 15 12   101.63 26   LegendNANA
19:00 20.8 16.0 74 0.0 16 12   101.63 25   LegendNANA
20:00 20.4 15.5 73 0.0 16 11   101.59 25   LegendNANA
21:00 21.0 13.9 64 0.0 16 13   101.62     LegendNANA
22:00 20.6 15.9 75 0.0 16 9   101.57 25   LegendNANA
23:00 20.6 16.0 75 0.0 17 8   101.57 25   LegendNANA

Notes on Data Quality.

Legend

  • E = Estimated
  • M = Missing
  • NA = Not Available*
  • [empty] = Indicates an unobserved value
Date modified: